User: anonymous   Login
Location: Waning Moon II Observatory
(30.3730°N, 89.7620°W)
Time: 20:55:52
(UTC-05:00)
Language:

Cosmos 1825 Rocket - Orbit

View from above orbital plane
View from above orbital plane
View from above satellite
View from above satellite

Ground track
Ground track

The orbit data is extracted from the following two-line orbital elements,

1 17567U 87024B   16268.99947741  .00000139  00000-0  13870-4 0  9996
2 17567  82.5262  87.2187 0020271 137.7370 222.5412 14.83610110597145
Epoch (UTC): 24 September 2016 23:59:14
Eccentricity: 0.0020271
inclination: 82.5262°
perigee height: 604 km
apogee height: 632 km
right ascension of ascending node: 87.2187°
argument of perigee: 137.7370°
revolutions per day: 14.83610110
mean anomaly at epoch: 222.5412°
orbit number at epoch: 59714

The dashed part of the orbit path shows where the satellite is in the earth's shadow,  

DLR